Refine Search
Year Filed

2008 ×

Court

Click on desired case number or refine your search to continue

Case TitleCourtCase NoChpDate FiledClosedDisposition
Capco Energy, Inc. and Pyramid Gom, Inc.Texas Southern4:08-bk-322821104/07/2008
JCA Literary Agency, Inc.New York Southern1:08-bk-12558707/07/2008
Lehman Brothers Holdings Inc.New York Southern1:08-bk-135551109/15/2008
KD8, LLCIllinois Northern1:08-bk-28220710/20/2008
KD2, LLCIllinois Northern1:08-bk-28206710/20/2008
Renaissance Healthcare Systems, Inc.Texas Northern4:08-bk-43822708/26/2008
Renaissance Hospitals, Inc.Texas Northern4:08-bk-43821708/26/200808/11/2017
Houston Community Hospital, Inc.Texas Northern4:08-bk-43820708/26/2008
Renaissance Hospital Dallas, Inc.Texas Northern4:08-bk-43819708/26/2008
Renaissance Hospital Terrell Inc.Texas Northern3:08-bk-341431108/21/200807/10/2017
Renaissance Hospital Grand Prairie, Inc. and Renaissance Hospital Terrell Inc.Texas Northern4:08-bk-43775708/21/2008
B. Moss Clothing Company Ltd.New Jersey2:08-bk-339801112/02/200812/22/2011
Polaroid CorporationMinnesota4:08-bk-46617712/18/200803/21/2022
Modern Metal Products Co.Illinois Northern3:08-bk-73908712/01/200811/10/2020Discharge Not Applicable
Linens Holding Co.Delaware1:08-bk-10832705/02/2008
Empire Land, LLCCalifornia Central6:08-bk-14592704/25/2008
KD6, LLCIllinois Northern1:08-bk-28217710/20/2008
KD4, LLCIllinois Northern1:08-bk-28213710/20/2008
Lancelot Investors Fund, LPIllinois Northern1:08-bk-28225710/20/2008
CV ENTERTAINMENT GROUP INCPuerto Rico3:08-bk-03393705/29/200808/24/2012Standard Discharge
K TORO GARRATON INCPuerto Rico3:08-bk-085071112/15/200812/03/2009Standard Discharge
Lien Acquisition, LLCIllinois Northern1:08-bk-28201710/20/2008
KD7, LLCIllinois Northern1:08-bk-28219710/20/2008
SWC Services, LLCIllinois Northern1:08-bk-28200710/20/2008
Heller Ehrman LLPCalifornia Northern3:08-bk-325141112/28/2008
Canal CorporationVirginia Eastern3:08-bk-366421112/29/2008
Janets, Inc.New Jersey3:08-bk-34573712/10/2008
Buffets of Pennsylvania, Inc.New Jersey3:08-bk-34570712/10/2008
Buffets of Autobaum, Inc.New Jersey3:08-bk-34565712/10/2008
Summit Global Logistics, Inc.New Jersey2:08-bk-11566701/30/2008
Hoop Holdings, LLCDelaware1:08-bk-105441103/26/200804/25/2019Discharge Not Applicable
New Life of Perry, Inc.Georgia Middle5:08-bk-52417709/01/200807/25/2013
First National Mortgage Sources, LLCKansas2:08-bk-20832704/15/200805/09/2022Discharge Not Applicable
Motor Coach Industries International, Inc.Delaware1:08-bk-121361109/15/200809/27/2012Discharge Not Applicable 09/27/2012
Motorsport Rentals IncCalifornia Central1:08-bk-18312710/23/200804/24/2009Discharge Not Applicable 04/24/2009
Motor Coach Industries, Inc.Delaware1:08-bk-121421109/15/200809/27/2012Discharge Not Applicable 09/27/2012
DHP Holdings II CorporationDelaware1:08-bk-13422712/29/200807/09/2020Discharge Not Applicable
Martin Designs, Inc.Ohio Northern6:08-bk-60431702/21/200802/07/2017
Laketown Wharf Marketing CorporationFlorida Northern4:08-bk-406921109/29/200802/28/2013Discharge Not Applicable
Tribune Media Company and Acutech, LLCDelaware1:08-bk-131411112/08/2008
Kurlemann Builders, IncOhio Southern1:08-bk-11006703/03/2008
MPC Computers, LLC, et al.,Delaware1:08-bk-126671111/06/2008
Gateway Professional, LLCDelaware1:08-bk-126751111/06/2008
MPC Solutions Sales, LLCDelaware1:08-bk-126741111/06/2008
MPC CorporationDelaware1:08-bk-126731111/06/2008
MPC-Pro, LLCDelaware1:08-bk-126721111/06/2008
Gateway Pro Partners, LLCDelaware1:08-bk-126711111/06/2008
GTG PC Holdings, LLCDelaware1:08-bk-126701111/06/2008
MPC-G, LLCDelaware1:08-bk-126691111/06/2008
Gateway Companies, Inc.Delaware1:08-bk-126681111/06/2008